EW8080 Weather Reports


Display with metric or nautical units.
time (UTC)temp
F
wind
direction
speed
MPH
gust
MPH
rain 1hr
in
rain 24hr
in
rain mn
in
humidity
%
barometer
mb
20260901210004 65 161 3.0 12.0 0.00 0.11 0.11 90 1018.2
20260901205003 65 169 4.0 8.0 0.00 0.11 0.11 91 1018.3
20260901204003 65 155 2.0 8.0 0.00 0.11 0.11 90 1018.3
20260901203003 65 132 3.0 8.0 0.00 0.11 0.11 90 1018.2
20260901202003 65 169 5.0 8.0 0.00 0.11 0.11 91 1018.1
20260901201024 65 179 2.0 7.0 0.01 0.11 0.11 90 1018.0
20260901200002 65 165 4.0 7.0 0.02 0.11 0.11 91 1017.8
20260901195003 65 163 3.0 6.0 0.02 0.11 0.11 90 1018.2
20260901194003 65 156 4.0 6.0 0.03 0.11 0.11 89 1017.8
20260901193003 65 116 3.0 6.0 0.05 0.11 0.11 88 1017.8
20260901192003 64 148 3.0 9.0 0.07 0.10 0.10 89 1018.1
20260901191003 64 164 4.0 9.0 0.07 0.10 0.10 88 1018.0
20260901190003 64 132 4.0 12.0 0.06 0.09 0.09 88 1017.7
20260901185003 65 156 3.0 12.0 0.06 0.09 0.09 88 1017.4
20260901184024 65 135 3.0 12.0 0.05 0.08 0.08 88 1017.8
20260901183003 65 186 5.0 12.0 0.03 0.06 0.06 87 1017.5
20260901182003 65 164 4.0 12.0 0.00 0.03 0.03 85 1018.0
20260901181003 66 166 2.0 15.0 0.00 0.03 0.03 83 1018.0
20260901180024 66 198 6.0 15.0 0.00 0.03 0.03 82 1017.8
20260901175002 66 158 7.0 15.0 0.00 0.03 0.03 82 1017.8
20260901174003 66 163 5.0 11.0 0.00 0.03 0.03 81 1017.7
20260901173024 67 194 5.0 12.0 0.00 0.03 0.03 82 1017.7
20260901172003 67 201 3.0 12.0 0.00 0.03 0.03 81 1018.1
20260901171003 67 191 5.0 12.0 0.00 0.03 0.03 81 1017.7
20260901170003 67 205 7.0 12.0 0.00 0.03 0.03 77 1017.6
20260901165003 68 189 6.0 11.0 0.00 0.03 0.03 75 1017.7
20260901164024 69 210 3.0 13.0 0.00 0.03 0.03 74 1017.8
20260901163003 70 172 5.0 13.0 0.00 0.03 0.03 72 1017.7
20260901162003 70 196 4.0 11.0 0.00 0.03 0.03 75 1017.6
20260901161002 71 199 5.0 11.0 0.01 0.03 0.03 77 1017.7
20260901160025 71 183 2.0 12.0 0.02 0.03 0.03 81 1017.6
20260901155003 71 177 9.0 14.0 0.02 0.03 0.03 82 1017.7
20260901154003 72 185 8.0 14.0 0.02 0.03 0.03 82 1018.0
20260901153003 72 177 8.0 16.0 0.02 0.03 0.03 84 1017.5
20260901152003 71 178 5.0 16.0 0.02 0.02 0.02 84 1017.6
20260901151002 72 180 6.0 12.0 0.01 0.02 0.02 80 1017.8
20260901150003 72 174 7.0 12.0 0.00 0.00 0.00 82 1017.8
20260901145003 72 161 6.0 12.0 0.00 0.00 0.00 82 1018.5
20260901144003 72 173 6.0 12.0 0.00 0.00 0.00 83 1018.3
20260901143025 72 205 2.0 6.0 0.00 0.00 0.00 87 1018.1
20260901142003 71 141 3.0 7.0 0.00 0.00 0.00 87 1018.2
20260901141003 70 142 6.0 7.0 0.00 0.00 0.00 86 1018.0
20260901140003 70 189 4.0 7.0 0.00 0.00 0.00 87 1018.0
20260901135003 70 152 2.0 7.0 0.00 0.00 0.00 87 1017.8
20260901134003 70 132 2.0 7.0 0.00 0.00 0.00 87 1018.1
20260901133003 70 183 5.0 7.0 0.00 0.00 0.00 88 1017.8
20260901132003 70 159 2.0 7.0 0.00 0.00 0.00 87 1018.0
20260901131003 70 157 3.0 8.0 0.00 0.00 0.00 86 1017.6
20260901130024 70 135 2.0 8.0 0.00 0.00 0.00 85 1017.7
20260901125003 70 167 4.0 8.0 0.00 0.00 0.00 87 1018.0
20260901124024 70 161 5.0 7.0 0.00 0.00 0.00 88 1017.8
20260901123004 70 152 2.0 6.0 0.00 0.00 0.00 88 1017.8
20260901122003 69 151 3.0 6.0 0.00 0.00 0.00 89 1017.6
20260901121003 69 119 2.0 6.0 0.00 0.00 0.00 90 1017.6
20260901120003 69 175 0.0 6.0 0.00 0.00 0.00 91 1017.7
20260901115003 68 184 0.0 6.0 0.00 0.00 0.00 91 1018.0
20260901114003 68 179 1.0 2.0 0.00 0.00 0.00 90 1017.8
20260901113003 68 327 1.0 3.0 0.00 0.00 0.00 90 1017.8
20260901112003 68 221 0.0 3.0 0.00 0.00 0.00 90 1017.6
20260901111003 67 168 0.0 3.0 0.00 0.00 0.00 89 1017.5
20260901110003 67 286 0.0 3.0 0.00 0.00 0.00 90 1017.7
20260901105003 67 210 0.0 3.0 0.00 0.00 0.00 90 1017.4
20260901104024 67 101 0.0 3.0 0.00 0.00 0.00 89 1017.4
20260901103024 67 207 2.0 3.0 0.00 0.00 0.00 89 1017.4
20260901102004 67 229 1.0 3.0 0.00 0.00 0.00 89 1017.2
20260901101003 67 154 0.0 3.0 0.00 0.00 0.00 88 1017.0
20260901100003 67 182 3.0 3.0 0.00 0.00 0.00 88 1017.0
20260901095003 67 116 0.0 3.0 0.00 0.00 0.00 88 1017.1
20260901094003 67 91 1.0 3.0 0.00 0.00 0.00 88 1016.9
20260901093003 67 92 1.0 3.0 0.00 0.00 0.00 88 1017.0
20260901092003 67 146 1.0 4.0 0.00 0.00 0.00 88 1017.1
20260901091003 67 127 2.0 4.0 0.00 0.00 0.00 88 1016.9
20260901090003 67 163 2.0 4.0 0.00 0.00 0.00 87 1017.0
20260901085003 67 157 2.0 4.0 0.00 0.00 0.00 86 1017.4
20260901084003 67 158 0.0 4.0 0.00 0.00 0.00 87 1017.6
20260901083003 67 120 1.0 3.0 0.00 0.00 0.00 87 1018.0
20260901082004 67 225 2.0 3.0 0.00 0.00 0.00 86 1018.3
20260901081003 67 141 2.0 4.0 0.00 0.00 0.00 86 1018.2
20260901080003 67 161 3.0 4.0 0.00 0.00 0.00 86 1017.8
20260901075024 67 189 3.0 4.0 0.00 0.00 0.00 86 1017.8
20260901074003 67 197 3.0 5.0 0.00 0.00 0.00 86 1017.8
20260901073003 67 179 3.0 5.0 0.00 0.00 0.00 85 1018.1
20260901072003 67 151 2.0 4.0 0.00 0.00 0.00 86 1018.2
20260901071003 67 133 1.0 4.0 0.00 0.00 0.00 85 1018.1
20260901070003 67 133 1.0 3.0 0.00 0.00 0.00 85 1018.1
20260901065003 67 144 1.0 3.0 0.00 0.00 0.00 85 1018.4
20260901064003 67 171 1.0 5.0 0.00 0.00 0.00 85 1018.6
20260901063003 66 84 1.0 5.0 0.00 0.00 0.00 85 1018.5
20260901062003 66 202 1.0 4.0 0.00 0.00 0.00 85 1018.4
20260901061003 66 134 1.0 4.0 0.00 0.00 0.00 85 1018.3
20260901060003 66 154 2.0 6.0 0.00 0.00 0.00 85 1018.4
20260901055003 66 161 1.0 6.0 0.00 0.00 0.00 85 1018.6
20260901054025 66 65 2.0 5.0 0.00 0.00 0.00 85 1018.5
20260901053002 66 263 1.0 5.0 0.00 0.00 0.00 85 1018.5
20260901052002 67 69 2.0 6.0 0.00 0.00 0.00 84 1018.3
20260901051002 67 191 2.0 7.0 0.00 0.00 0.00 84 1018.6
20260901050002 67 154 3.0 7.0 0.00 0.00 0.00 84 1018.6
20260901045024 67 161 2.0 8.0 0.00 0.00 0.00 84 1018.7
20260901044002 67 58 2.0 8.0 0.00 0.00 0.00 84 1018.6
20260901043002 67 170 4.0 6.0 0.00 0.01 0.00 84 1018.8
20260901042023 67 212 4.0 6.0 0.00 0.01 0.00 83 1018.9
20260901041002 67 131 2.0 6.0 0.00 0.02 0.00 83 1018.7
20260901040002 67 76 1.0 3.0 0.00 0.17 0.00 82 1018.8
20260901035002 68 143 0.0 3.0 0.00 0.17 0.17 83 1019.0
20260901034002 68 165 1.0 3.0 0.00 0.17 0.17 83 1018.8
20260901033023 68 106 0.0 4.0 0.00 0.17 0.17 83 1018.8
20260901032002 68 146 0.0 4.0 0.00 0.17 0.17 83 1018.8
20260901031002 68 222 0.0 4.0 0.00 0.17 0.17 83 1018.7
20260901030023 68 192 1.0 3.0 0.00 0.17 0.17 83 1018.9
20260901025002 68 159 1.0 3.0 0.00 0.17 0.17 83 1018.7
20260901024002 68 193 1.0 4.0 0.00 0.17 0.17 83 1018.9
20260901023002 68 192 1.0 8.0 0.00 0.17 0.17 82 1018.9
20260901022023 68 213 0.0 8.0 0.00 0.17 0.17 81 1019.1
20260901021002 69 188 2.0 6.0 0.00 0.17 0.17 80 1019.1
20260901020003 69 145 2.0 6.0 0.00 0.17 0.17 80 1019.3
20260901015002 69 202 2.0 6.0 0.00 0.17 0.17 80 1019.2
20260901014002 69 184 4.0 6.0 0.00 0.17 0.17 80 1019.1
20260901013002 69 185 5.0 6.0 0.00 0.17 0.17 80 1019.2
20260901012002 69 196 3.0 7.0 0.00 0.17 0.17 80 1019.1
20260901011023 69 192 2.0 7.0 0.00 0.17 0.17 81 1019.0
20260901010002 69 214 5.0 7.0 0.00 0.17 0.17 81 1019.0
20260901005002 69 218 1.0 8.0 0.00 0.17 0.17 80 1019.0
20260901004002 69 171 5.0 11.0 0.00 0.17 0.17 80 1019.1
20260901003002 69 186 5.0 11.0 0.00 0.17 0.17 81 1019.1
20260901002002 70 190 3.0 9.0 0.00 0.17 0.17 80 1019.3
20260901001023 70 154 3.0 9.0 0.00 0.17 0.17 79 1019.2
20260901000002 70 185 3.0 8.0 0.00 0.17 0.17 78 1019.1
20260831235002 70 167 3.0 11.0 0.00 0.17 0.17 77 1019.3
20260831234002 70 171 5.0 11.0 0.00 0.17 0.17 77 1019.1
20260831233002 70 181 7.0 13.0 0.00 0.17 0.17 76 1019.1
20260831232023 70 169 6.0 13.0 0.00 0.17 0.17 76 1019.0
20260831231002 70 173 3.0 10.0 0.00 0.17 0.17 75 1019.1
20260831230002 71 180 6.0 13.0 0.00 0.17 0.17 75 1019.2
20260831225023 71 184 5.0 13.0 0.00 0.17 0.17 75 1019.1
20260831224023 71 170 3.0 12.0 0.00 0.17 0.17 75 1019.3
20260831223003 72 176 5.0 12.0 0.00 0.17 0.17 74 1019.2
20260831222023 72 177 7.0 12.0 0.00 0.17 0.17 74 1019.4
20260831221002 72 192 4.0 10.0 0.00 0.17 0.17 75 1019.2
20260831220002 73 182 7.0 10.0 0.00 0.17 0.17 74 1019.2
20260831215003 73 209 5.0 10.0 0.00 0.17 0.17 73 1019.2
20260831214002 74 197 5.0 10.0 0.00 0.17 0.17 71 1019.4
20260831213023 74 162 4.0 11.0 0.00 0.17 0.17 66 1019.2
20260831212003 74 187 2.0 18.0 0.00 0.17 0.17 64 1019.0
20260831211003 75 178 6.0 18.0 0.00 0.17 0.17 62 1019.2